Weather Roundup
Issued by NWS Springfield, MO

Home | Current Version | Previous Version | Text Only | Print | Product List | Glossary On
Versions: 1 2 3 4 5 6 7 8 9 10 11 12 13 14 15 16 17 18 19 20 21 22 23 24 25 26 27 28 29 30 31 32 33 34 35 36 37 38 39 40 41 42 43 44 45 46 47 48 49 50
000
NZUS99 KSGF 040107
HRRSGF

HOURLY WEATHER
NATIONAL WEATHER SERVICE SPRINGFIELD MO
800 PM CDT THU SEP 03 2015

......SGF CWA......

CITY           SKY/WX    TMP DP  RH WIND       PRES   REMARKS
SPRINGFIELD    CLEAR     81  68  64 SE5       29.93F
JOPLIN         CLEAR     81  69  67 S3        29.91F
WEST PLAINS    CLEAR     78  70  76 CALM      29.97S
ROLLA          PTCLDY    78  67  68 S5        29.94S
OSAGE BEACH    MOCLDY    82  66  57 S5        29.94R
BRANSON        PTCLDY    81  68  65 S5        29.96S

......SURROUNDING SGF CWA......

CITY           SKY/WX    TMP DP  RH WIND       PRES   REMARKS
CHANUTE        CLEAR     77  70  79 SE5       29.88F
PARSONS        CLEAR     78  72  81 SE3       29.89F
COFFEYVILLE    CLEAR     79  71  76 SE6       29.87F
EMPORIA        PTCLDY    82  67  60 SE13      29.86S
GROVE OK       CLEAR     81  72  74 CALM      29.91S
ROGERS AR      CLEAR     80  68  66 CALM      29.94F
SILOAM SPRINGS CLEAR     79  64  61 SE5       29.91F
HARRISON AR    CLEAR     78  69  73 CALM      29.95F
NEAR YELLVILLE CLEAR     84  64  51 CALM      29.91S

......KANSAS AND MISSOURI......

CITY           SKY/WX    TMP DP  RH WIND       PRES   REMARKS
KANSAS CTY INT PTCLDY    78  67  68 S8        29.88S
DOWNTOWN KC    CLEAR     85  67  54 S8        29.87R
COLUMBIA       PTCLDY    82  72  71 SE3       29.92S
SEDALIA        CLEAR     83  67  58 S5        29.92S
ST JOSEPH      CLEAR     81  69  67 S9        29.86S
ST LOUIS       PTCLDY    88  65  46 SW5       29.92S HX  90
SPIRIT OF STL  CLEAR     79  73  82 CALM      29.90S
KIRKSVILLE     CLEAR     79  69  71 S6        29.91S
WICHITA        MOCLDY    84  63  49 SE12      29.84S
TOPEKA         CLEAR     83  68  60 SE9       29.85S
OLATHE         CLEAR     78  69  73 S7        29.89S

......TENNESSEE......

CITY           SKY/WX    TMP DP  RH WIND       PRES   REMARKS
MEMPHIS        MOCLDY    86  69  56 NW3       29.92S HX  90
NASHVILLE      MOCLDY    85  65  51 CALM      29.94R

......ARKANSAS.......

CITY           SKY/WX    TMP DP  RH WIND       PRES   REMARKS
FAYETTEVILLE   CLEAR     76  71  85 CALM      29.93F
FT SMITH       CLEAR     84  68  58 E6        29.87S
LITTLE ROCK    PTCLDY    87  68  52 SE5       29.90S HX  90

......OKLAHOMA.......

CITY           SKY/WX    TMP DP  RH WIND       PRES   REMARKS
TULSA          MOCLDY    82  70  66 SE7       29.85F
PONCA CITY     MOCLDY    86  66  51 SE14      29.84S
MCALESTER      MOCLDY    85  68  56 S5        29.88S
OKLAHOMA CITY  MOCLDY    83  64  52 SE8       29.87S

......IOWA............

CITY           SKY/WX    TMP DP  RH WIND       PRES   REMARKS
DES MOINES     PTCLDY    83  72  69 S6        29.85S
QUAD CITIES    CLEAR     79  72  79 CALM      29.88S

......ILLINOIS........

CITY           SKY/WX    TMP DP  RH WIND       PRES   REMARKS
QUINCY         CLEAR     85  67  54 S5        29.90S
CHICAGO        MOCLDY    74  67  78 NE9       29.93R



USA.gov is the U.S. government's official web portal to all federal, state and local government web resources and services.